Wind_Speed
11 7 12 16 16 9 6 9 10 3 3 3 11 14 13 10 11 12 11 12 11 12 13 13 8 7 7 6 6 5 4 2 3 3 2 2 2 1 2 3 3 3 3 3
6 13 10 5 7 8 8 8 9 3 0 2 8 14 16 15 17 16 16 15 14 13 12 11 10 10 9 8 6 5 4 3 3 5 4 3 3 3 3 4 4 5 5 6
10 1 10 10 11 10 9 11 7 4 1 6 8 14 19 11 13 14 13 14 15 15 15 12 13 11 10 9 7 6 5 4 4 4 5 6 6 6 5 4 3 5 6 6
10 7 11 11 12 11 11 8 4 3 2 5 2 5 4 6 6 8 9 10 13 13 10 12 14 12 10 8 6 5 4 4 4 6 4 5 3 5 4 4 3 4 6 6
5 12 15 14 14 10 2 8 7 4 4 4 9 5 6 1 9 9 5 1 3 2 7 11 15 13 10 9 7 6 6 5 5 5 5 5 6 7 5 4 3 4 5 7
6 1 6 4 5 10 12 13 8 3 2 5 11 8 7 7 4 6 5 2 1 3 4 5 11 12 10 8 8 7 7 6 6 6 6 5 6 6 4 3 3 4 5 7
7 7 4 8 12 6 8 12 3 3 4 5 3 6 9 3 3 3 5 4 0 2 5 9 10 13 12 11 9 7 7 7 7 7 7 7 7 6 5 4 4 4 4 5
11 6 11 9 7 9 13 5 3 6 5 3 4 7 4 4 3 1 3 1 3 5 6 9 12 11 11 10 9 8 8 8 7 7 7 7 7 6 5 5 4 4 4 4
10 4 7 11 2 14 8 6 3 4 2 2 6 6 11 5 3 2 3 4 5 6 7 9 11 12 12 11 9 9 9 9 8 8 7 6 6 6 6 4 4 3 3 2
5 6 7 4 3 3 5 12 4 3 4 5 5 6 7 4 5 5 5 7 7 7 8 9 11 11 11 11 10 10 9 9 9 8 6 6 6 5 5 4 3 2 2 2
6 5 7 7 10 13 6 6 5 5 2 3 3 3 3 5 4 5 7 8 9 9 8 8 10 11 11 11 12 11 10 9 9 8 6 6 4 4 4 3 3 2 1 1
4 5 6 13 1 3 13 9 10 4 5 4 3 5 5 5 4 4 6 9 8 9 10 9 12 13 13 13 13 14 13 11 9 7 6 5 4 4 3 3 3 3 2 2
9 5 6 5 3 2 7 10 12 9 2 8 4 3 4 4 5 6 9 11 10 10 10 9 12 13 14 15 14 13 11 9 8 8 7 7 6 5 5 5 5 5 4 4
7 3 8 11 4 9 9 17 15 14 5 8 16 14 6 6 7 7 10 12 11 10 10 10 10 14 15 14 12 10 10 10 10 10 10 10 10 10 9 9 8 7 6 5
8 4 5 3 2 9 8 13 20 22 21 13 11 19 17 10 10 10 12 11 13 14 13 12 11 11 14 12 11 10 10 12 12 12 11 11 12 11 10 10 9 8 7 5
9 3 6 2 2 3 10 14 19 22 22 21 21 21 11 11 11 10 13 14 15 15 14 12 10 11 11 13 14 15 14 14 15 14 15 15 15 14 13 11 10 8 8 8
9 6 3 3 3 1 10 15 16 16 20 19 23 17 13 14 14 15 16 16 17 16 14 11 9 12 13 15 16 14 15 15 17 16 17 19 18 17 15 13 12 10 9 8
13 7 2 3 3 8 1 1 11 21 19 18 22 15 13 14 14 14 14 17 18 17 14 11 14 13 13 16 18 16 17 17 17 18 19 20 19 18 17 16 15 13 12 12
12 7 4 4 8 10 11 6 7 8 12 19 21 19 16 13 6 14 15 13 16 16 15 14 15 15 14 21 22 22 20 19 19 21 21 21 21 21 20 20 19 17 16 15
8 12 5 4 5 7 3 2 3 5 8 13 13 15 17 10 11 10 11 10 9 10 10 12 13 14 21 24 26 23 21 20 23 22 20 20 20 22 21 20 19 19 18 16
5 6 12 7 6 6 4 7 6 5 2 1 1 8 8 11 11 3 4 5 2 2 10 13 16 22 24 23 24 23 23 25 23 18 17 18 20 20 20 20 20 20 18 17
10 8 5 4 8 11 7 5 9 2 2 1 1 1 4 6 4 3 2 2 5 6 7 11 14 17 18 21 24 26 27 25 18 15 16 18 18 18 20 21 20 20 20 19
7 5 5 9 6 1 13 2 6 2 3 2 1 2 3 4 3 4 3 4 5 7 8 11 15 14 17 22 27 28 26 18 15 15 16 17 16 18 19 22 22 21 20 19
5 1 2 3 3 4 9 4 2 5 4 3 3 3 4 4 4 4 5 5 5 10 12 13 15 20 24 27 27 27 21 15 15 17 18 17 18 20 21 21 23 21 23 20
3 10 6 5 3 1 8 8 6 5 2 3 3 2 4 5 4 5 4 6 9 15 16 18 22 25 26 23 25 23 20 21 20 19 20 20 20 21 19 20 22 23 23 24
6 5 8 7 8 3 3 10 8 7 7 5 6 4 4 4 6 2 4 12 14 15 14 16 20 21 20 18 19 21 22 22 22 23 22 20 18 19 18 19 19 18 17 20
Wind_Direction
185 203 197 202 211 244 287 214 238 129 71 268 241 256 258 256 232 245 243 242 229 227 212 164 179 157 148 148 147 147 146 144 136 145 180 227 235 118 40 9 34 34 23 19
169 227 217 222 173 199 207 210 225 71 118 265 283 273 271 250 240 237 238 236 230 220 206 172 181 173 171 157 153 141 137 134 155 146 153 157 160 112 104 75 74 67 50 48
201 117 134 160 181 188 207 217 205 282 170 231 291 274 255 235 251 241 236 247 244 230 215 193 194 187 171 162 154 148 140 143 157 158 140 131 124 117 110 81 51 49 43 35
226 131 180 185 194 196 206 210 232 204 258 265 346 284 190 192 210 201 215 229 238 242 243 199 183 188 176 152 138 120 125 139 148 153 165 169 172 149 117 104 76 37 31 20
169 176 176 194 200 191 164 148 177 182 235 328 212 253 240 106 242 210 166 136 220 284 275 220 167 176 163 152 141 135 132 123 127 137 140 144 123 121 126 115 84 43 21 19
106 350 167 143 140 190 134 121 106 121 230 246 226 219 253 207 240 149 170 89 207 219 219 179 150 154 156 150 144 141 138 128 119 123 114 125 130 133 131 117 82 51 33 23
133 151 124 151 121 149 168 158 110 204 213 239 105 220 268 149 174 261 304 304 139 166 162 150 161 170 165 158 151 148 140 119 114 114 115 122 118 112 104 83 69 62 46 33
171 190 177 179 196 176 185 190 184 207 202 175 141 229 238 95 112 333 332 359 139 155 151 166 169 166 164 157 158 156 145 128 124 124 122 119 109 105 101 96 87 77 68 48
170 115 132 177 151 150 173 199 46 94 36 268 199 233 274 180 166 178 173 180 167 157 158 162 165 169 167 166 167 163 152 147 144 141 130 123 117 119 120 111 98 96 84 60
158 113 177 130 147 224 207 144 140 215 202 234 199 250 245 193 174 161 176 187 168 163 163 164 170 173 171 171 171 169 167 165 161 153 146 143 140 129 123 122 122 125 95 71
149 110 157 164 212 182 161 183 214 181 271 254 268 223 93 157 166 176 186 185 174 173 174 173 175 177 179 178 181 182 180 174 177 171 169 158 147 140 135 129 132 135 103 86
163 110 160 191 59 338 225 226 194 215 189 241 330 258 156 152 174 197 186 181 177 175 180 183 182 182 186 190 191 193 191 190 184 177 169 163 165 170 165 168 174 171 175 165
168 169 129 189 218 202 227 217 229 246 319 209 228 241 154 174 218 203 201 183 184 187 182 182 186 190 195 197 199 200 196 190 184 181 181 189 195 196 190 195 199 194 193 193
177 223 231 231 234 157 195 210 213 215 224 240 230 259 183 205 227 197 199 190 186 186 187 192 191 195 197 198 198 197 195 190 194 198 203 207 207 205 208 210 207 204 200 196
195 193 197 105 127 193 204 208 209 218 225 227 246 236 243 213 222 207 197 191 187 189 197 201 200 198 196 193 189 186 188 196 207 204 207 214 218 215 213 212 208 204 192 182
198 170 169 120 127 208 235 236 224 224 231 243 254 254 256 242 217 211 202 191 199 205 201 204 202 196 199 190 191 192 192 203 203 202 215 214 215 214 215 211 205 199 189 182
178 146 140 193 162 338 267 228 234 238 227 230 236 242 236 244 235 227 213 202 206 208 203 204 202 200 202 198 192 197 198 202 206 208 211 212 214 214 211 209 204 197 188 181
189 146 101 124 170 229 296 90 234 224 234 234 249 252 248 245 239 235 229 216 211 211 212 209 209 209 206 207 204 199 196 202 204 210 214 217 215 214 211 205 203 196 189 185
199 167 132 183 215 304 279 184 178 190 251 237 245 243 243 243 267 246 222 232 224 221 219 216 208 212 209 210 203 198 194 199 204 214 217 221 218 216 214 209 205 200 191 185
218 194 193 171 221 232 65 126 180 142 285 221 223 236 237 216 230 243 217 206 234 234 219 192 205 214 204 211 201 194 197 203 218 222 225 227 223 220 218 216 206 201 194 186
178 186 204 186 225 272 160 155 183 150 230 97 226 242 219 209 218 79 42 65 95 239 214 225 211 207 207 202 196 200 206 218 228 231 228 226 224 220 219 214 207 201 188 176
176 167 187 162 217 252 140 121 181 153 62 59 281 207 192 178 117 134 145 158 176 197 201 204 207 207 205 202 203 211 219 229 234 233 233 229 224 218 212 207 201 196 182 176
211 205 179 199 214 92 181 171 199 89 143 186 228 179 152 157 197 182 192 221 235 216 208 213 217 216 214 211 214 220 231 238 242 243 239 234 225 216 210 204 195 183 183 180
222 120 187 132 189 193 209 213 258 192 200 135 64 90 145 136 179 213 220 215 224 244 231 217 211 220 223 221 226 232 238 251 254 247 237 229 219 211 209 201 199 187 183 183
151 144 159 263 210 290 249 233 223 205 204 200 104 159 171 174 198 214 220 230 235 241 234 225 220 226 234 236 241 247 257 261 252 242 235 224 218 205 195 196 194 195 201 196
182 163 187 216 181 169 188 212 188 188 200 171 180 214 237 189 225 201 234 241 240 243 254 249 243 245 247 253 257 261 263 258 244 237 230 216 201 194 192 190 192 207 209 205
Height
792 794 791 788 787 787 794 790 794 797 812 812 803 801 796 794 797 800 797 796 796 800 802 810 818 819 821 824 826 828 830 831 833 835 837 838 839 839 839 838 837 838 838 838
799 792 778 779 789 797 796 799 800 812 815 815 803 802 794 792 791 793 793 793 793 797 800 811 816 819 820 823 825 827 829 830 831 833 834 837 838 839 839 839 838 838 838 837
782 783 788 794 799 800 800 801 804 811 814 811 810 797 785 780 784 785 788 789 789 791 796 806 815 818 821 823 825 827 828 829 830 832 833 835 836 838 839 840 839 839 839 838
784 791 794 796 798 796 805 802 808 816 817 813 810 800 782 781 786 792 790 791 791 791 792 797 811 818 821 824 827 828 829 829 829 832 834 836 837 839 840 841 841 840 840 839
790 794 796 798 795 797 800 806 810 814 818 824 811 817 778 785 785 779 788 794 792 797 796 796 807 816 822 824 826 827 828 830 831 833 835 837 838 839 840 841 841 840 840 840
798 797 794 795 798 802 808 812 817 819 821 828 806 811 778 776 781 780 788 790 799 801 802 801 810 818 822 824 825 826 828 830 831 833 836 837 838 839 841 842 843 843 843 843
799 802 803 802 809 813 808 811 830 834 836 818 818 818 782 781 786 789 792 793 800 803 805 807 814 818 821 823 825 828 829 830 832 833 836 837 838 840 841 843 843 844 844 845
790 808 802 802 797 805 808 805 811 818 815 797 827 813 782 788 793 796 799 797 801 803 805 810 814 818 820 822 825 828 829 831 832 834 835 837 838 839 841 842 843 844 844 844
783 796 800 800 801 800 812 816 806 819 845 818 792 788 778 782 792 795 798 800 802 804 806 809 813 817 819 822 825 827 828 830 831 833 835 837 838 839 840 841 842 843 844 843
770 797 800 805 803 803 800 799 818 812 821 814 781 789 774 784 784 791 795 797 800 804 806 809 813 816 818 821 824 827 828 829 831 833 835 836 837 838 839 840 842 843 843 843
770 777 807 805 800 796 804 806 803 800 809 798 791 775 768 773 781 784 789 794 797 802 805 808 811 815 818 820 823 825 827 829 830 832 834 835 837 839 840 841 842 843 843 844
773 782 801 798 802 800 789 791 796 794 807 802 807 783 777 778 783 787 787 792 795 798 802 806 810 813 816 818 821 823 825 828 830 833 834 836 838 839 840 841 841 842 842 842
774 784 801 807 803 801 797 796 789 790 799 795 798 775 779 782 785 785 785 789 794 797 800 803 807 810 813 816 818 821 825 828 830 832 834 835 836 838 840 840 840 841 841 841
769 770 762 765 768 777 792 790 790 792 798 787 778 775 777 780 779 781 783 785 789 796 799 800 803 806 809 812 816 820 823 826 827 829 830 831 833 835 836 837 838 839 840 841
770 781 769 778 779 772 776 777 780 783 780 780 771 771 769 769 772 776 777 783 787 791 794 797 799 803 806 811 814 817 820 822 823 825 827 830 832 834 835 836 837 838 839 841
766 782 774 791 786 785 782 776 768 770 774 774 773 766 759 760 764 772 777 780 784 786 789 792 796 800 803 806 810 812 813 816 818 820 822 826 828 831 832 834 837 838 839 840
769 787 787 781 790 787 786 776 772 768 764 765 763 757 762 762 765 765 771 774 778 781 784 788 792 796 799 801 804 808 810 811 814 816 820 822 823 826 829 831 833 836 838 840
764 781 791 796 801 786 757 763 757 757 757 756 754 756 755 756 758 764 765 767 772 776 779 784 788 791 794 799 801 804 805 808 811 814 816 817 820 822 824 826 829 832 834 836
758 770 791 783 780 757 751 763 762 761 752 750 749 749 754 756 760 758 759 763 765 769 775 779 783 787 790 792 795 798 801 805 807 807 811 813 814 817 820 822 823 826 829 832
762 760 766 795 769 763 749 757 758 755 756 737 741 746 748 754 761 755 755 760 764 767 771 775 779 782 784 787 790 794 798 801 801 803 807 810 811 813 815 819 820 823 826 829
770 773 768 774 765 753 741 757 756 761 747 742 744 742 744 748 747 757 757 760 763 767 769 772 774 775 779 784 788 792 794 794 796 801 802 804 805 807 810 814 817 820 824 828
750 761 764 773 768 755 746 757 748 739 743 745 747 743 744 746 753 758 759 761 763 765 767 769 772 774 778 781 785 787 788 789 793 795 798 799 801 803 807 811 815 818 823 825
747 732 741 742 736 742 743 738 740 741 740 745 746 748 747 751 754 757 760 762 762 762 764 766 770 773 777 779 779 781 783 787 789 791 793 796 798 802 803 808 812 816 819 821
747 749 742 746 740 741 743 740 741 743 745 746 747 750 752 754 757 758 759 759 761 763 763 764 766 769 770 772 775 777 779 784 785 787 788 792 793 797 801 803 807 810 813 816
732 742 744 742 747 748 742 738 738 743 744 747 750 752 752 753 753 754 755 757 758 760 760 761 761 762 764 767 770 774 777 779 780 782 784 785 788 792 796 799 800 804 807 809
733 732 726 718 726 724 723 728 734 739 740 746 751 751 750 750 751 752 754 753 755 756 757 759 759 760 761 763 766 767 769 770 772 776 777 780 783 788 792 796 798 801 804 806